[[{"header":{"parameterUnit":"m.s-1","parameterCategory":1,"la1":30.2991,"la2":30.254,"lo1":-89.0895,"lo2":-89.0444,"dy":0.0017,"dx":0.0017,"nx":28,"ny":28,"refTime":"2024-09-02T09:00:00:Z","depth":0,"parameterNumber":2,"parameterNumberName":"U-component_of_WINDS"},"data":[0,0,0,0,0,0,0,0,0,0,0,0,0,0,0,0,0,0,0,0,0,0,0,0,0,0,0,0,0,0,0,0,0,0,0,0,0,0,0,0,0,0,0,0,0,0,0,0,0,0,0,0,0,0,0,0,0,0,-0.5571,-0.5571,0,-0.5595,-0.5596,-0.5596,-0.5563,-0.5562,-0.5561,-0.5559,-0.5586,-0.5588,-0.5589,0,0,0,0,0,0,0,0,0,0,0,0,0,-0.5497,-0.5498,-0.5571,-0.5571,-0.5571,-0.5595,-0.5596,-0.5596,-0.5563,-0.5562,-0.556,-0.5559,-0.5585,-0.5587,-0.559,0,0,0,0,0,0,0,0,0,0,0,0,0,-0.5526,-0.5499,-0.5571,-0.5558,-0.5557,-0.5595,-0.5596,-0.5596,-0.5563,-0.5562,-0.556,-0.5558,-0.5585,-0.5587,-0.559,-0.5642,0,0,-0.5598,-0.5599,0,0,0,0,0,0,0,0,-0.5524,-0.5529,-0.556,-0.5559,-0.5558,-0.5574,-0.5579,-0.5612,-0.5564,-0.5561,-0.5559,-0.5557,-0.5584,-0.5586,-0.5595,-0.5644,-0.5645,-0.5598,-0.56,-0.5601,-0.5602,0,0,0,0,0,0,0,-0.5522,-0.5527,-0.5581,-0.556,-0.5559,-0.5551,-0.5553,-0.5585,-0.5582,-0.5561,-0.5559,-0.5562,-0.5583,-0.5592,-0.5595,-0.5645,-0.5598,-0.5601,-0.5602,-0.5604,-0.5738,-0.574,0,0,0,0,0,0,-0.5522,-0.5526,-0.558,-0.5581,-0.5536,-0.5554,-0.5556,-0.5571,-0.5582,-0.5582,-0.5564,-0.5561,-0.5588,-0.5592,-0.5596,-0.5659,-0.5601,-0.5604,-0.5605,-0.5737,-0.5739,-0.5741,0,0,0,0,0,0,-0.552,-0.5527,-0.5579,-0.5553,-0.5559,-0.5557,-0.5574,-0.5572,-0.5582,-0.5583,-0.5583,-0.5574,-0.5587,-0.5592,-0.5631,-0.5659,-0.5605,-0.5607,-0.5734,-0.5737,-0.574,-0.5785,0,0,0,0,0,0,-0.5518,-0.5526,-0.5546,-0.5554,-0.5561,-0.5613,-0.5575,-0.5574,-0.5586,-0.5582,-0.5593,-0.5593,-0.5586,-0.5627,-0.5634,-0.5662,-0.561,-0.5732,-0.5736,-0.5739,-0.5781,-0.5789,-0.5795,0,0,0,0,0,-0.5516,-0.5558,-0.5547,-0.5554,-0.5585,-0.5615,-0.5619,-0.561,-0.5589,-0.5609,-0.561,-0.5593,-0.5655,-0.5631,-0.5639,-0.5668,-0.573,-0.5734,-0.5739,-0.5777,-0.5787,-0.5795,0,0,0,0,0,0,-0.5554,-0.5559,-0.5547,-0.5593,-0.5604,-0.5609,-0.5635,-0.5621,-0.5638,-0.5634,-0.5622,-0.5625,-0.5667,-0.5671,-0.5645,-0.5719,-0.5689,-0.5695,-0.5716,-0.5725,-0.5732,-0.5731,-0.5612,0,0,0,0,0,-0.5568,-0.5592,-0.5594,-0.5635,-0.5641,-0.5637,-0.5649,-0.5641,-0.5652,-0.5657,-0.5661,-0.5673,-0.5695,-0.571,-0.573,-0.578,-0.5783,-0.5804,-0.5811,-0.5818,-0.5824,-0.5851,-0.5861,-0.5755,-0.5755,-0.5755,0,0,-0.5597,-0.5602,-0.5618,-0.5642,-0.565,-0.5675,-0.5641,-0.5669,-0.5688,-0.5661,-0.5699,-0.5702,-0.5714,-0.5759,-0.5779,-0.5764,-0.5853,-0.5823,-0.5828,-0.5831,-0.5857,-0.5867,-0.5875,-0.5758,-0.5758,-0.5757,0,0,-0.5663,-0.5669,-0.5704,-0.5712,-0.5723,-0.572,-0.5729,-0.5736,-0.5737,-0.5774,-0.5755,-0.5777,-0.5815,-0.5825,-0.5835,-0.5904,-0.5889,-0.5911,-0.5951,-0.5978,-0.5986,-0.5993,-0.6019,-0.6028,-0.5916,-0.5916,-0.5916,0,-0.5698,-0.5735,-0.5723,-0.5753,-0.5764,-0.5741,-0.5776,-0.5785,-0.5803,-0.5811,-0.5793,-0.5841,-0.5848,-0.5895,-0.5912,-0.592,-0.593,-0.5911,-0.5985,-0.5993,-0.5999,-0.6024,-0.6034,-0.5919,-0.5919,-0.5918,-0.5918,0,-0.5778,-0.5804,-0.583,-0.5848,-0.5862,-0.5895,-0.5888,-0.5904,-0.5894,-0.5893,-0.5931,-0.5938,-0.596,-0.597,-0.5961,-0.6016,-0.6006,-0.5987,-0.5957,-0.6012,-0.6035,-0.6044,-0.5923,-0.5922,-0.5921,-0.592,0,0,-0.5871,-0.5881,-0.5891,-0.5899,-0.5909,-0.5929,-0.596,-0.5981,-0.5996,-0.6008,-0.6035,-0.6067,-0.6049,-0.6061,-0.6052,-0.6076,-0.6131,-0.6054,-0.6054,-0.6069,-0.6194,-0.6209,-0.622,-0.6121,-0.6122,-0.6124,-0.6193,0,-0.5938,-0.5992,-0.5982,-0.6034,-0.6059,-0.6036,-0.6063,-0.6073,-0.6072,-0.6093,-0.6092,-0.6116,-0.609,-0.6097,-0.6119,-0.612,-0.6156,-0.6115,-0.6146,-0.6148,-0.6146,-0.6232,-0.6248,-0.6314,-0.6202,-0.6203,-0.6204,0,-0.6024,-0.604,-0.6095,-0.6102,-0.6111,-0.6136,-0.6154,-0.6174,-0.6184,-0.6182,-0.6195,-0.6182,-0.6213,-0.6181,-0.6224,-0.6196,-0.6208,-0.621,-0.6212,-0.6217,-0.6181,-0.624,-0.6334,-0.6344,-0.6218,-0.6217,-0.6216,0,-0.6088,-0.6122,-0.616,-0.6167,-0.6176,-0.6194,-0.6198,-0.6207,-0.622,-0.6236,-0.6244,-0.6264,-0.6275,-0.629,-0.6283,-0.6259,-0.6328,-0.6295,-0.6328,-0.6328,-0.6345,-0.6345,-0.6444,-0.635,-0.635,-0.635,-0.635,0,-0.6165,-0.62,-0.6189,-0.6213,-0.6251,-0.6239,-0.6277,-0.6279,-0.6287,-0.631,-0.6291,-0.6314,-0.6302,-0.6324,-0.6318,-0.6356,-0.6361,-0.636,-0.6359,-0.6363,-0.6364,-0.6372,-0.6368,-0.6352,-0.6352,-0.6351,-0.6351,0,-0.6244,-0.6238,-0.6277,-0.6282,-0.6284,-0.6312,-0.6316,-0.6338,-0.6336,-0.6366,-0.6372,-0.6369,-0.6393,-0.6387,-0.6414,-0.641,-0.6458,-0.645,-0.6455,-0.6453,-0.6488,-0.6485,-0.6598,-0.6613,-0.6508,-0.6509,-0.6509,0,-0.6294,-0.6321,-0.6328,-0.6342,-0.6348,-0.6371,-0.6384,-0.6373,-0.6387,-0.6401,-0.6422,-0.6444,-0.6462,-0.6502,-0.6503,-0.6523,-0.6516,-0.6554,-0.6519,-0.6523,-0.6519,-0.6518,-0.6521,-0.6562,-0.6563,-0.6564,-0.6565,0,-0.6385,-0.638,-0.64,-0.6419,-0.6435,-0.6449,-0.6461,-0.6474,-0.6464,-0.6481,-0.6506,-0.6519,-0.6546,-0.657,-0.6588,-0.6593,-0.6578,-0.6575,-0.6585,-0.659,-0.6593,-0.6593,-0.6475,-0.6574,-0.6573,-0.6572,-0.6572,-0.6571,-0.6452,-0.6475,-0.6484,-0.6506,-0.6514,-0.6526,-0.6547,-0.6547,-0.6567,-0.6588,-0.658,-0.6609,-0.6618,-0.6641,-0.6648,-0.6671,-0.6657,-0.6669,-0.6673,-0.6677,-0.6682,-0.6587,-0.6674,-0.6674,-0.6673,-0.6673,-0.6673,0,-0.6543,-0.6547,-0.6568,-0.6586,-0.6604,-0.6586,-0.6599,-0.6615,-0.6641,-0.665,-0.6668,-0.6697,-0.6719,-0.672,-0.6741,-0.6759,-0.6752,-0.6765,-0.6764,-0.6766,-0.6693,-0.6683,-0.677,-0.677,-0.677,-0.677,-0.677,-0.677,-0.6593,-0.663,-0.6627,-0.6668,-0.6672,-0.67,-0.6709,-0.672,-0.6728,-0.6761,-0.6779,-0.6779,-0.6786,-0.6807,-0.6826,-0.6826,-0.6836,-0.6851,-0.6848,-0.6781,-0.6771,-0.6762,-0.6753,-0.6853,-0.6853,-0.692,-0.6921,-0.6921]},{"header":{"parameterUnit":"m.s-1","parameterCategory":1,"la1":30.2991,"la2":30.254,"lo1":-89.0895,"lo2":-89.0444,"dy":0.0017,"dx":0.0017,"nx":28,"ny":28,"refTime":"2024-09-02T09:00:00:Z","depth":0,"parameterNumber":3,"parameterNumberName":"V-component_of_WINDS"},"data":[0,0,0,0,0,0,0,0,0,0,0,0,0,0,0,0,0,0,0,0,0,0,0,0,0,0,0,0,0,0,0,0,0,0,0,0,0,0,0,0,0,0,0,0,0,0,0,0,0,0,0,0,0,0,0,0,0,0,-3.8238,-3.8239,0,-3.8321,-3.8322,-3.8323,-3.8272,-3.827,-3.8268,-3.8265,-3.8346,-3.8351,-3.8355,0,0,0,0,0,0,0,0,0,0,0,0,0,-3.8032,-3.8036,-3.8238,-3.8239,-3.824,-3.8321,-3.8322,-3.8323,-3.8273,-3.827,-3.8267,-3.8264,-3.8345,-3.835,-3.8355,0,0,0,0,0,0,0,0,0,0,0,0,0,-3.8119,-3.8037,-3.8238,-3.8225,-3.8224,-3.8321,-3.8322,-3.8324,-3.8273,-3.827,-3.8266,-3.8263,-3.8343,-3.8349,-3.8356,-3.8469,0,0,-3.8376,-3.8379,0,0,0,0,0,0,0,0,-3.8114,-3.8126,-3.8226,-3.8226,-3.8226,-3.8283,-3.8279,-3.8372,-3.8274,-3.8255,-3.8265,-3.8261,-3.8328,-3.8335,-3.8359,-3.8472,-3.8476,-3.8377,-3.8381,-3.8383,-3.8385,0,0,0,0,0,0,0,-3.8108,-3.8122,-3.8271,-3.8227,-3.8227,-3.8214,-3.8222,-3.8296,-3.831,-3.8256,-3.8253,-3.8263,-3.8327,-3.8353,-3.836,-3.8477,-3.8376,-3.8382,-3.8386,-3.8389,-3.8687,-3.8691,0,0,0,0,0,0,-3.8103,-3.8118,-3.8268,-3.8273,-3.816,-3.822,-3.823,-3.8268,-3.8309,-3.8312,-3.8266,-3.8261,-3.8343,-3.8353,-3.8363,-3.8498,-3.8383,-3.839,-3.8393,-3.8683,-3.8688,-3.8693,0,0,0,0,0,0,-3.8099,-3.8117,-3.8265,-3.8195,-3.8212,-3.8228,-3.8271,-3.8272,-3.8297,-3.8317,-3.8319,-3.829,-3.8341,-3.8354,-3.8443,-3.85,-3.8393,-3.8399,-3.8679,-3.8685,-3.869,-3.8769,0,0,0,0,0,0,-3.8094,-3.8116,-3.816,-3.8196,-3.8216,-3.8345,-3.8275,-3.8276,-3.8309,-3.8302,-3.834,-3.8343,-3.8339,-3.8434,-3.845,-3.8507,-3.8404,-3.8674,-3.8682,-3.8689,-3.8761,-3.8777,-3.879,0,0,0,0,0,-3.8086,-3.8178,-3.8162,-3.8181,-3.8272,-3.8348,-3.836,-3.8355,-3.8314,-3.8358,-3.837,-3.8341,-3.8491,-3.8443,-3.8461,-3.8521,-3.867,-3.8679,-3.8688,-3.8755,-3.8774,-3.879,0,0,0,0,0,0,-3.8146,-3.8182,-3.8166,-3.8272,-3.8308,-3.834,-3.8395,-3.8375,-3.8422,-3.8414,-3.8404,-3.8413,-3.8506,-3.8522,-3.8468,-3.8633,-3.8574,-3.8587,-3.8619,-3.8637,-3.8651,-3.8646,-3.8409,0,0,0,0,0,-3.8172,-3.8233,-3.826,-3.8351,-3.837,-3.838,-3.8413,-3.8406,-3.8442,-3.8456,-3.8476,-3.8511,-3.8566,-3.8602,-3.8654,-3.8763,-3.8771,-3.8813,-3.8828,-3.884,-3.8851,-3.8911,-3.893,-3.8722,-3.8722,-3.8722,0,0,-3.8225,-3.8252,-3.8291,-3.8364,-3.8391,-3.8453,-3.8392,-3.846,-3.8506,-3.8466,-3.8553,-3.8568,-3.8606,-3.8707,-3.8752,-3.8723,-3.891,-3.8851,-3.886,-3.8865,-3.8922,-3.8941,-3.8959,-3.8728,-3.8727,-3.8726,0,0,-3.8355,-3.8381,-3.846,-3.8489,-3.8531,-3.8537,-3.8556,-3.8592,-3.8601,-3.8688,-3.866,-3.8713,-3.8808,-3.8837,-3.8864,-3.9005,-3.898,-3.9021,-3.9097,-3.9155,-3.9171,-3.9186,-3.9237,-3.9255,-3.9033,-3.9033,-3.9033,0,-3.8415,-3.8509,-3.8503,-3.8574,-3.8607,-3.8575,-3.8655,-3.8682,-3.8738,-3.8761,-3.8728,-3.8848,-3.8871,-3.8978,-3.9013,-3.9035,-3.9056,-3.9017,-3.917,-3.9184,-3.9198,-3.9246,-3.9265,-3.9038,-3.9037,-3.9037,-3.9036,0,-3.8582,-3.8647,-3.8706,-3.8763,-3.8802,-3.8877,-3.8881,-3.8921,-3.8911,-3.892,-3.9009,-3.9036,-3.9093,-3.9118,-3.9107,-3.9224,-3.9204,-3.9171,-3.9112,-3.9223,-3.9268,-3.9286,-3.9045,-3.9043,-3.9041,-3.904,0,0,-3.8751,-3.8805,-3.8827,-3.8853,-3.8897,-3.8947,-3.902,-3.9077,-3.9112,-3.9152,-3.9213,-3.9294,-3.9264,-3.9295,-3.9287,-3.9338,-3.9449,-3.9299,-3.9299,-3.9326,-3.9579,-3.9605,-3.9626,-3.9433,-3.9436,-3.9439,-3.9576,0,-3.8884,-3.9013,-3.901,-3.913,-3.919,-3.9161,-3.9225,-3.9258,-3.9269,-3.932,-3.9331,-3.9389,-3.9345,-3.9363,-3.9412,-3.9425,-3.95,-3.9415,-3.9489,-3.9491,-3.9481,-3.965,-3.9677,-3.9805,-3.9594,-3.9597,-3.9599,0,-3.9056,-3.9103,-3.923,-3.9267,-3.9292,-3.9349,-3.9402,-3.9452,-3.9489,-3.9493,-3.9528,-3.9513,-3.9586,-3.9525,-3.9625,-3.9568,-3.9598,-3.9609,-3.9613,-3.962,-3.9552,-3.9662,-3.9845,-3.9865,-3.9626,-3.9624,-3.9622,0,-3.9167,-3.9263,-3.9351,-3.9374,-3.9419,-3.946,-3.948,-3.9514,-3.9549,-3.9594,-3.9617,-3.967,-3.9699,-3.9739,-3.9738,-3.9694,-3.984,-3.9779,-3.9845,-3.9846,-3.9878,-3.9876,-4.0069,-3.9896,-3.9896,-3.9895,-3.9895,0,-3.9316,-3.9395,-3.9402,-3.9457,-3.9544,-3.9539,-3.9625,-3.9641,-3.9672,-3.9728,-3.9705,-3.9758,-3.9753,-3.9806,-3.9806,-3.9889,-3.9902,-3.9907,-3.9906,-3.991,-3.9909,-3.9929,-3.9921,-3.99,-3.9899,-3.9898,-3.9897,0,-3.9456,-3.9464,-3.9559,-3.9594,-3.9604,-3.9667,-3.9697,-3.9748,-3.9756,-3.9828,-3.9844,-3.9857,-3.9919,-3.9922,-3.9992,-3.9992,-4.0094,-4.0082,-4.0082,-4.008,-4.0146,-4.0141,-4.036,-4.0389,-4.0196,-4.0198,-4.02,0,-3.9551,-3.9611,-3.9653,-3.969,-3.9713,-3.9773,-3.9809,-3.9806,-3.9844,-3.9892,-3.9937,-3.9997,-4.0045,-4.0144,-4.0159,-4.0213,-4.0203,-4.0276,-4.0211,-4.0213,-4.0205,-4.0202,-4.0208,-4.0289,-4.0291,-4.0293,-4.0294,0,-3.9718,-3.972,-3.9774,-3.9829,-3.9873,-3.9917,-3.9957,-3.9988,-3.9989,-4.0033,-4.0097,-4.0134,-4.0207,-4.0267,-4.0319,-4.0338,-4.0317,-4.0315,-4.0333,-4.0338,-4.0336,-4.0339,-4.0118,-4.031,-4.0308,-4.0307,-4.0306,-4.0306,-3.9839,-3.9892,-3.993,-3.9991,-4.0021,-4.0059,-4.011,-4.0125,-4.0179,-4.0239,-4.0234,-4.0304,-4.034,-4.0409,-4.0432,-4.0487,-4.0461,-4.0488,-4.0494,-4.0501,-4.0509,-4.0327,-4.0496,-4.0495,-4.0495,-4.0495,-4.0494,0,-4.0006,-4.003,-4.0086,-4.0144,-4.0191,-4.0169,-4.0212,-4.0253,-4.0316,-4.0352,-4.04,-4.0473,-4.0531,-4.0551,-4.0607,-4.0647,-4.0638,-4.0661,-4.0659,-4.0664,-4.0528,-4.0507,-4.0667,-4.0667,-4.0667,-4.0667,-4.0667,-4.0667,-4.0099,-4.0187,-4.0193,-4.0296,-4.0318,-4.0389,-4.0415,-4.045,-4.0479,-4.0563,-4.0611,-4.0624,-4.0654,-4.0712,-4.0764,-4.0768,-4.079,-4.0817,-4.0818,-4.069,-4.0673,-4.0656,-4.0637,-4.0822,-4.0822,-4.0949,-4.095,-4.0951]}]]